Weather History for Perth, WE

Change the Weather History Date:

Saturday, October 12, 2013

  Actual Average Record
Temperature  
Mean Temperature 56 °F -  
Max Temperature 66 °F 74 °F 79 °F (2012)
Min Temperature 46 °F 53 °F 41 °F (2000)
Degree Days  
Heating Degree Days 9    
Growing Degree Days 6 (Base 50)    
Moisture  
Dew Point 44 °F    
Average Humidity 62    
Maximum Humidity 94    
Minimum Humidity 27    
Precipitation  
Precipitation 0.00 in 0.05 in - ()
Sea Level Pressure  
Sea Level Pressure 30.15 in    
Wind  
Wind Speed 9 mph ()    
Max Wind Speed 17 mph    
Max Gust Speed -    
Visibility 8.0 miles    
Events Rain    
Averages and records for this station are not official NWS values.
T = Trace of Precipitation, MM = Missing Value Source: Averaged Metar Reports

Daily Weather History Graph

Daily Weather History Graph

Search for Another Location

Airport:

Trip Planner

Search our weather history database for the weather conditions in past years. The results will help you decide how hot, cold, wet, or windy it might be!

Date:

Astronomy

Oct. 12, 2013 Rise Set
Actual Time 5:40 AM AWST 6:25 PM AWST
Civil Twilight 5:15 AM AWST 6:50 PM AWST
Nautical Twilight 4:46 AM AWST 7:19 PM AWST
Astronomical Twilight 4:16 AM AWST 7:49 PM AWST
Moon 11:40 AM AWST (10/12) 12:42 AM AWST (10/12)
Length of Visible Light 13h 34m
Length of Day
12h 45m
First Quarter, 52% of the Moon is Illuminated
Oct 12
First Quarter
Oct 19
Full
Oct 27
Last Quarter
Nov 3
New
Nov 10
First Quarter

Hourly Weather History & Observations

Time (AWST) Temp. Windchill Dew Point Humidity Pressure Visibility Wind Dir Wind Speed Gust Speed Precip Events Conditions
12:00 AM 56 °F - 46 °F 60% 30.10 in 12 mi South 10.4 mph - -   Partly Cloudy
12:00 AM 55.4 °F - 46.4 °F 72% 30.09 in 6.2 mi South 10.4 mph - N/A   Mostly Cloudy
12:30 AM 55.4 °F - 46.4 °F 72% 30.09 in 6.2 mi South 8.1 mph - N/A   Mostly Cloudy
1:00 AM 55.4 °F - 44.6 °F 67% 30.09 in 6.2 mi SSW 8.1 mph - N/A   Mostly Cloudy
1:30 AM 55.4 °F - 46.4 °F 72% 30.09 in 6.2 mi South 5.8 mph - N/A   Mostly Cloudy
2:00 AM 54 °F - 46 °F 67% 30.09 in - SSE 8.1 mph - -  
2:00 AM 53.6 °F - 46.4 °F 77% 30.09 in 6.2 mi SSE 8.1 mph - N/A   Mostly Cloudy
2:30 AM 55.4 °F - 46.4 °F 72% 30.06 in 6.2 mi South 5.8 mph - N/A   Mostly Cloudy
3:00 AM 53 °F - 47 °F 73% 30.08 in 12 mi South 3.5 mph - -   Partly Cloudy
3:00 AM 53.6 °F - 46.4 °F 77% 30.06 in 6.2 mi South 3.5 mph - N/A   Mostly Cloudy
3:30 AM 51.8 °F - 46.4 °F 82% 30.06 in 6.2 mi WSW 4.6 mph - N/A   Mostly Cloudy
4:00 AM 51.8 °F - 48.2 °F 88% 30.09 in 6.2 mi South 4.6 mph - N/A   Mostly Cloudy
4:30 AM 51.8 °F - 46.4 °F 82% 30.06 in 6.2 mi SE 8.1 mph - N/A   Mostly Cloudy
5:00 AM 49 °F - 46 °F 87% 30.10 in - ESE 3.5 mph - -  
5:00 AM 50.0 °F - 46.4 °F 87% 30.09 in 6.2 mi ESE 3.5 mph - N/A   Mostly Cloudy
5:30 AM 51.8 °F - 46.4 °F 82% 30.09 in 3.1 mi West 6.9 mph - N/A   Light Drizzle
5:40 AM 51.8 °F - 48.2 °F 88% 30.09 in 5.6 mi SW 4.6 mph - N/A   Light Drizzle
6:00 AM 50 °F - 47 °F 85% 30.12 in 12 mi South 8.1 mph - -   Partly Cloudy
6:00 AM 50.0 °F - 46.4 °F 87% 30.12 in 6.2 mi South 8.1 mph - N/A   Scattered Clouds
6:23 AM 51.8 °F - 48.2 °F 88% 30.12 in 3.1 mi SSE 8.1 mph - N/A   Drizzle
6:30 AM 51.8 °F - 48.2 °F 88% 30.12 in 3.1 mi South 9.2 mph - N/A Rain Light Rain Showers
6:51 AM 51.8 °F - 50.0 °F 94% 30.15 in 6.2 mi South 6.9 mph - N/A   Mostly Cloudy
7:00 AM 51.8 °F - 50.0 °F 94% 30.15 in 6.2 mi South 5.8 mph - N/A   Mostly Cloudy
7:30 AM 55.4 °F - 48.2 °F 77% 30.15 in 6.2 mi SE 5.8 mph - N/A   Mostly Cloudy
8:00 AM 55 °F - 49 °F 74% 30.17 in - South 8.1 mph - -  
8:00 AM 55.4 °F - 48.2 °F 77% 30.15 in 6.2 mi South 8.1 mph - N/A   Mostly Cloudy
8:30 AM 57.2 °F - 48.2 °F 72% 30.15 in 6.2 mi South 6.9 mph - N/A   Mostly Cloudy
9:00 AM 58 °F - 45 °F 52% 30.18 in 17 mi South 12.7 mph - -   Partly Cloudy
9:00 AM 57.2 °F - 44.6 °F 63% 30.15 in 6.2 mi South 12.7 mph - N/A   Mostly Cloudy
9:30 AM 59.0 °F - 44.6 °F 59% 30.18 in 6.2 mi South 16.1 mph - N/A   Mostly Cloudy
10:00 AM 60.8 °F - 42.8 °F 52% 30.18 in 6.2 mi South 16.1 mph - N/A   Scattered Clouds
10:30 AM 60.8 °F - 42.8 °F 52% 30.15 in 6.2 mi South 15.0 mph - N/A   Mostly Cloudy
11:00 AM 62 °F - 42 °F 36% 30.18 in - South 17.3 mph - -  
11:00 AM 62.6 °F - 41.0 °F 45% 30.15 in 6.2 mi South 17.3 mph - N/A   Partly Cloudy
11:30 AM 64.4 °F - 42.8 °F 45% 30.15 in 6.2 mi South 12.7 mph - N/A   Scattered Clouds
12:00 PM 63 °F - 40 °F 32% 30.17 in 19 mi South 9.2 mph - -   Partly Cloudy
12:00 PM 62.6 °F - 41.0 °F 45% 30.15 in 6.2 mi SSE 8.1 mph - N/A   Scattered Clouds
12:30 PM 62.6 °F - 39.2 °F 42% 30.15 in 6.2 mi SW 12.7 mph - N/A   Scattered Clouds
1:00 PM 64.4 °F - 41.0 °F 42% 30.15 in - SW 12.7 mph - N/A   Clear
1:30 PM 64.4 °F - 39.2 °F 40% 30.15 in 6.2 mi West 9.2 mph - N/A   Scattered Clouds
2:00 PM 64 °F - 39 °F 29% 30.17 in - SW 12.7 mph - -  
2:00 PM 64.4 °F - 39.2 °F 40% 30.15 in 6.2 mi SW 12.7 mph - N/A   Scattered Clouds
2:30 PM 64.4 °F - 39.2 °F 40% 30.15 in - WSW 11.5 mph - N/A   Clear
3:00 PM 64 °F - 38 °F 27% 30.16 in 19 mi SW 16.1 mph - -   Partly Cloudy
3:00 PM 64.4 °F - 39.2 °F 40% 30.15 in - SW 16.1 mph - N/A   Clear
3:30 PM 64.4 °F - 37.4 °F 37% 30.15 in - SW 16.1 mph - N/A   Clear
4:00 PM 64.4 °F - 37.4 °F 37% 30.15 in - SW 15.0 mph - N/A   Clear
4:30 PM 64.4 °F - 39.2 °F 40% 30.15 in - SW 15.0 mph - N/A   Clear
5:00 PM 63 °F - 39 °F 30% 30.18 in - SW 13.8 mph - -  
5:00 PM 62.6 °F - 39.2 °F 42% 30.15 in - SW 13.8 mph - N/A   Clear
5:30 PM 62.6 °F - 39.2 °F 42% 30.18 in - SW 17.3 mph - N/A   Clear
6:00 PM 61 °F - 41 °F 35% 30.19 in 19 mi South 15.0 mph - -   Partly Cloudy
6:00 PM 60.8 °F - 41.0 °F 48% 30.18 in - South 16.1 mph - N/A   Clear
6:30 PM 59.0 °F - 41.0 °F 51% 30.21 in - SSW 12.7 mph - N/A   Clear
7:00 PM 59.0 °F - 41.0 °F 51% 30.21 in - SSW 10.4 mph - N/A   Clear
7:30 PM 59.0 °F - 41.0 °F 51% 30.21 in - SSW 10.4 mph - N/A   Clear
8:00 PM 57 °F - 42 °F 46% 30.24 in - South 12.7 mph - -  
8:00 PM 57.2 °F - 42.8 °F 59% 30.24 in - South 12.7 mph - N/A   Clear
8:30 PM 55.4 °F - 44.6 °F 67% 30.24 in - South 11.5 mph - N/A   Clear
9:00 PM 55 °F - 44 °F 57% 30.26 in 19 mi South 11.5 mph - -   Partly Cloudy
9:00 PM 55.4 °F - 44.6 °F 67% 30.24 in - South 11.5 mph - N/A   Clear
9:30 PM 55.4 °F - 44.6 °F 67% 30.24 in - South 8.1 mph - N/A   Clear
10:00 PM 51.8 °F - 44.6 °F 76% 30.24 in - South 9.2 mph - N/A   Clear
10:30 PM 48.2 °F - 44.6 °F 87% 30.24 in - SSW 5.8 mph - N/A   Clear
11:00 PM 47 °F - 44 °F 86% 30.26 in - SSE 1.2 mph - -  
11:00 PM 46.4 °F - 44.6 °F 93% 30.24 in - SSE 1.2 mph - N/A   Clear
11:30 PM 46.4 °F 44.3 °F 44.6 °F 93% 30.24 in - South 4.6 mph - N/A   Clear